Theta_e
345 345 345 344 344 345 348 349 349 350 349 349 348 348 348 348 347 347 346 346 344 342 341 342 342 342 345 344 345 344 344 344 344 343 342 341 341 341 341 341 341 341 341 341 341 340 339 341 343 342 343 343 340 329 328 328 329 333 332 331 333 331
344 345 344 344 344 345 346 347 345 346 346 346 347 348 346 345 347 343 346 342 341 343 339 339 341 345 342 343 343 344 344 343 343 343 342 342 341 341 341 340 340 340 341 340 340 329 330 339 342 341 340 338 330 328 329 330 330 331 332 330 332 337
344 343 343 343 343 344 343 342 342 343 345 346 346 346 343 343 339 340 340 340 341 339 338 339 340 343 343 343 343 343 343 342 341 341 341 340 339 339 339 339 339 339 339 339 327 325 326 327 331 341 339 331 328 329 329 330 330 330 330 331 329 340
343 342 341 341 342 343 342 340 339 341 341 341 343 343 340 338 338 338 338 337 337 339 337 338 346 346 346 340 340 343 342 341 341 341 342 340 341 339 339 340 340 338 330 330 323 325 327 327 328 328 328 328 328 329 329 329 329 329 329 336 332 340
342 341 340 341 341 341 341 339 339 341 340 340 339 337 336 335 336 336 335 336 335 335 334 335 336 336 334 334 332 331 331 331 332 333 336 329 330 331 329 326 325 328 323 326 325 325 328 328 328 328 328 329 329 329 330 330 330 328 328 329 333 342
340 340 339 340 340 342 340 337 337 338 337 337 336 335 332 334 334 335 335 335 335 333 333 334 334 333 333 331 330 328 327 328 330 332 333 328 327 328 325 325 325 327 325 325 327 328 328 329 328 328 329 329 329 329 329 329 329 330 328 329 335 342
339 338 337 338 339 339 336 336 337 336 334 333 333 332 331 332 333 333 334 335 332 331 332 332 332 333 334 331 328 327 326 327 328 329 331 329 328 328 327 326 324 325 324 326 328 327 327 327 328 329 329 329 329 329 328 328 328 328 328 330 337 340
338 338 336 338 337 336 334 335 338 338 333 337 333 331 331 332 333 333 333 333 334 331 331 331 332 333 331 327 326 326 325 326 327 328 331 329 328 329 329 327 323 323 325 326 328 328 328 327 326 328 328 328 329 328 328 328 328 327 329 330 332 339
337 336 336 337 335 334 335 336 335 332 332 338 330 331 331 331 331 331 332 333 335 330 329 330 330 329 327 326 325 325 325 324 326 328 328 328 329 328 328 328 325 323 322 324 326 327 326 325 325 326 328 329 329 328 328 328 328 328 328 329 330 335
336 337 337 336 334 334 335 335 333 332 333 335 329 330 330 330 329 330 330 332 332 330 329 329 328 326 327 325 326 326 325 324 326 327 327 328 328 328 329 328 325 324 324 324 326 328 326 326 327 327 328 329 329 329 328 328 328 328 328 329 329 334
337 338 336 335 334 334 335 334 334 333 333 330 331 332 331 329 329 329 331 331 331 331 330 328 328 326 326 326 324 325 326 325 324 326 327 328 328 329 329 328 326 324 324 325 326 327 327 327 326 328 329 329 328 329 329 329 329 330 330 329 330 331
334 334 334 334 335 335 335 335 334 333 332 332 332 330 329 329 332 328 330 330 330 330 331 328 328 326 327 326 325 326 325 325 325 326 329 329 330 330 331 330 330 326 325 326 325 325 326 326 326 327 327 328 328 329 328 329 330 329 329 328 329 329
335 335 335 335 335 335 335 336 334 334 333 334 332 331 329 329 330 329 328 329 329 331 330 329 327 328 330 326 326 325 323 327 328 329 330 332 332 330 328 327 325 326 325 325 325 325 326 325 325 325 326 327 327 328 329 330 329 329 329 328 328 329
334 335 335 336 335 335 335 335 335 334 336 333 331 330 331 330 331 329 330 328 329 329 329 328 328 326 326 325 324 323 322 326 328 330 331 331 328 327 325 325 324 326 327 324 324 323 324 324 324 323 324 326 326 326 329 329 328 328 328 327 325 327
335 334 337 336 336 335 335 335 335 335 335 333 332 331 331 330 330 330 331 329 330 330 328 329 327 327 325 325 323 323 323 326 330 331 330 328 327 325 324 323 323 323 323 323 323 325 323 323 323 324 325 325 325 327 327 326 326 326 325 323 326 325
333 333 335 336 335 335 335 335 335 337 334 333 332 332 331 331 330 329 330 330 328 330 329 328 327 326 325 324 323 322 324 325 330 330 329 327 327 325 323 322 321 323 322 321 323 322 321 323 324 325 325 324 325 325 325 324 326 327 325 324 325 325
332 333 336 336 335 334 334 334 335 337 334 333 332 331 330 330 331 331 330 329 329 332 330 329 327 326 326 324 323 324 324 325 329 329 327 325 325 324 323 322 321 322 323 321 322 321 321 323 323 323 323 323 323 323 323 324 323 323 325 323 324 325
333 334 336 336 335 334 334 335 335 334 335 333 333 331 331 331 331 330 330 329 330 331 330 329 328 327 326 326 326 326 324 324 328 329 326 325 324 324 322 322 320 320 322 322 321 322 321 322 323 322 322 322 322 321 321 322 324 328 323 324 324 326
333 334 333 334 334 333 334 333 331 333 332 332 332 331 331 331 330 330 328 328 329 331 331 329 328 328 328 329 326 325 324 323 327 327 326 325 326 326 324 319 322 321 322 321 321 321 323 323 324 323 323 322 323 321 321 322 322 321 322 324 329 329
333 332 332 331 332 332 333 333 332 332 333 332 332 332 330 329 330 328 329 330 329 329 331 330 327 328 329 328 326 324 324 323 326 327 326 326 326 325 322 321 320 322 321 322 322 322 323 323 322 321 322 321 322 322 323 321 320 320 321 323 325 325
332 332 331 330 330 332 332 331 332 333 332 331 331 329 329 327 329 327 329 330 330 329 329 330 329 328 327 330 326 324 323 322 325 327 325 325 325 323 321 321 320 320 321 320 319 320 321 323 321 319 318 317 318 321 326 322 321 321 321 321 323 324
333 332 332 331 330 332 333 332 332 332 330 329 329 328 326 325 328 329 328 329 330 329 329 330 330 328 328 326 324 324 323 323 324 324 325 326 325 326 322 321 321 319 317 319 318 321 323 318 315 314 314 311 313 315 319 319 320 319 319 320 320 321
333 332 332 331 331 331 331 331 331 327 327 323 326 326 327 325 329 329 328 329 329 329 329 329 329 329 326 325 325 324 323 322 323 327 326 327 327 323 321 321 319 320 318 319 321 321 321 315 314 313 312 312 308 308 314 315 315 318 319 318 320 321
332 333 332 332 332 331 331 329 327 327 327 325 322 325 324 325 325 326 326 328 329 329 330 329 329 329 327 325 324 324 323 322 322 326 328 327 326 323 321 319 317 318 320 319 314 318 321 320 316 317 310 307 308 306 306 308 310 312 314 319 320 321
331 332 332 332 331 329 329 325 324 324 325 324 325 323 323 321 323 325 326 324 327 328 329 329 329 328 328 325 323 324 324 323 322 323 327 326 325 324 322 320 319 320 319 319 314 314 319 321 318 318 314 309 307 305 302 306 306 307 310 311 315 321
330 330 331 330 329 328 327 323 321 322 321 320 320 321 321 322 321 324 325 322 325 327 328 328 327 327 327 326 324 324 324 324 322 323 325 324 323 322 321 321 320 321 318 318 319 316 315 319 321 321 316 313 311 307 308 308 303 303 309 310 315 318
328 328 328 328 327 327 324 322 322 323 322 322 321 320 320 321 324 321 323 323 324 323 326 327 325 325 326 326 324 324 324 323 324 324 326 324 323 323 323 322 321 319 318 318 317 315 317 317 318 319 319 318 320 314 315 310 303 304 304 308 309 311
326 326 326 327 326 326 323 321 321 322 323 322 322 321 321 321 319 322 322 320 319 320 322 324 325 324 325 326 325 324 324 324 324 325 326 324 323 322 323 322 322 320 318 319 318 319 316 314 319 318 318 315 315 315 312 309 308 308 305 306 306 310
324 325 324 325 325 323 322 321 322 322 321 322 321 321 320 321 320 321 319 316 318 318 319 320 321 323 323 325 327 324 323 323 323 324 327 324 323 323 322 322 320 319 318 318 318 317 319 318 316 316 316 313 313 312 311 310 309 307 304 305 304 305
322 323 323 323 323 321 321 322 321 321 321 319 320 319 318 318 318 317 318 315 315 316 316 316 316 319 319 321 322 323 322 322 322 323 325 323 322 323 321 321 321 320 319 318 316 319 319 318 318 316 317 315 311 309 309 308 306 307 307 306 306 304
319 321 322 322 321 319 320 321 321 321 320 319 318 318 317 316 316 317 317 314 314 314 314 315 315 315 317 318 317 321 319 319 321 326 325 322 322 324 322 322 321 318 319 318 317 317 316 316 317 317 316 316 313 312 310 307 307 307 305 304 303 303
318 320 321 322 321 320 321 320 320 320 319 319 318 317 316 315 316 316 315 314 314 316 314 315 314 315 315 317 317 316 317 317 321 321 322 322 322 322 322 321 320 319 318 317 317 318 317 317 316 317 315 315 314 312 311 310 309 308 308 307 306 303
318 319 321 321 320 320 319 319 319 319 319 319 318 316 315 315 315 315 314 314 314 314 313 315 313 316 314 315 316 316 314 316 319 321 320 320 320 321 321 321 320 319 318 318 319 318 317 317 317 318 317 313 314 313 312 312 311 308 308 307 306 303
318 319 320 320 319 319 318 318 317 318 318 317 316 315 313 314 314 314 315 315 315 314 314 314 313 314 314 316 315 316 316 314 316 317 318 318 319 319 321 322 320 319 318 319 318 317 316 315 315 314 316 315 314 312 312 313 309 309 307 306 304 305
318 319 320 319 317 318 317 317 316 317 316 315 315 314 313 314 314 314 313 314 314 313 315 311 312 313 315 314 313 313 314 316 315 316 316 317 320 318 318 319 319 319 316 315 316 316 314 316 316 314 314 316 315 312 313 312 308 309 309 308 307 305
320 320 320 319 317 317 317 317 316 316 315 317 317 315 315 314 313 314 313 314 313 312 312 312 313 313 314 314 314 314 314 313 314 315 314 315 317 318 318 318 315 315 314 317 314 313 313 314 315 314 315 311 315 313 313 313 309 308 308 308 308 306
319 319 319 318 317 317 316 316 315 316 316 317 316 315 314 313 312 312 313 313 314 312 312 313 314 313 312 312 312 313 314 312 313 313 313 313 314 314 315 315 313 310 310 309 311 310 308 311 309 310 308 309 312 311 312 313 310 308 308 307 307 305
Wind_Speed
8 9 8 7 6 7 10 13 11 13 15 15 15 15 14 15 13 12 12 11 10 6 5 5 6 5 11 6 8 10 11 12 12 12 11 11 9 8 7 5 3 5 7 7 7 6 6 6 7 8 11 13 13 6 5 5 6 5 4 3 3 3
8 9 8 7 6 5 7 9 6 7 7 10 12 12 9 7 9 6 11 8 5 5 5 4 5 8 5 6 6 10 10 11 11 11 11 10 9 7 6 5 4 5 6 5 5 3 3 5 8 9 13 13 8 5 5 5 5 5 4 4 3 4
10 9 9 7 6 6 6 4 5 6 6 9 8 7 5 7 4 5 5 5 5 5 4 4 4 6 5 8 6 8 9 10 10 11 11 10 9 7 6 5 5 5 4 3 3 3 3 4 5 10 11 8 6 5 5 5 5 5 4 3 3 7
10 9 7 7 6 6 5 4 5 5 5 5 5 5 5 5 5 4 5 5 5 4 3 4 8 11 8 4 5 7 8 9 9 10 9 6 7 7 8 7 6 4 2 2 4 3 4 5 5 5 6 6 5 5 5 4 5 4 3 3 3 9
9 8 7 7 7 6 5 5 5 5 5 5 5 5 4 4 5 5 5 5 4 3 4 4 4 4 4 4 3 2 2 2 3 4 6 5 4 4 5 4 3 3 3 3 4 3 4 5 5 6 6 5 5 5 5 5 4 3 2 2 2 6
8 7 6 6 6 7 7 5 5 5 6 5 5 5 4 4 5 5 4 4 4 5 4 4 4 4 4 4 3 2 2 2 3 3 4 5 4 4 3 2 2 3 4 4 4 3 3 6 7 6 6 5 5 5 5 5 4 4 2 2 2 6
6 6 6 5 5 5 5 5 5 6 6 5 4 5 4 4 4 4 4 4 6 5 5 4 4 4 4 3 2 2 2 2 3 4 3 5 4 2 1 1 2 3 3 4 4 4 5 5 6 7 5 5 5 5 5 4 4 3 3 3 4 7
7 6 6 6 5 5 5 6 6 6 5 7 6 5 4 4 4 4 3 3 4 5 5 5 4 4 3 2 2 1 2 3 3 4 3 4 4 2 2 1 2 3 4 4 5 5 5 5 4 5 6 5 5 5 4 4 3 3 3 3 3 5
7 6 6 6 5 5 5 5 5 6 5 6 5 5 4 3 4 3 3 4 5 5 4 4 5 4 3 2 1 1 2 3 3 3 3 2 2 2 2 2 2 2 4 6 5 5 5 5 4 4 6 6 5 5 4 4 3 3 3 3 3 4
7 6 5 5 5 5 5 6 6 6 5 5 4 3 3 4 3 4 4 3 4 5 5 5 5 4 4 3 2 1 2 2 3 3 2 2 1 2 2 2 2 3 5 6 6 4 5 5 4 4 4 6 5 5 4 4 4 4 3 3 3 3
4 4 3 2 5 5 5 5 5 5 4 5 4 4 3 3 3 3 4 3 3 4 5 4 5 4 4 4 2 2 2 1 3 2 2 2 2 3 2 3 2 3 4 5 5 4 5 5 4 4 4 5 5 5 5 4 3 3 4 4 4 4
9 5 3 2 1 5 5 5 5 5 5 4 4 4 4 3 3 3 3 3 3 3 4 4 5 4 4 4 3 3 1 1 2 2 2 2 3 2 3 3 4 4 5 6 5 5 4 5 4 4 3 5 4 5 3 4 4 4 3 4 4 4
10 10 8 6 3 4 4 5 5 5 5 5 4 4 4 4 4 3 3 3 3 3 3 5 4 4 4 3 3 3 2 1 1 3 2 3 4 3 2 4 5 5 6 5 6 5 4 3 4 3 4 4 4 3 4 5 4 3 4 3 4 4
8 7 6 5 4 5 4 5 4 4 5 5 4 4 4 4 4 4 3 3 3 3 3 3 4 3 3 3 2 2 2 2 2 3 2 3 4 2 3 5 5 6 5 6 5 3 4 4 3 3 4 4 3 3 5 4 3 3 3 3 3 3
8 8 7 6 6 6 5 5 5 5 5 4 4 4 4 4 4 4 3 3 3 3 3 3 3 4 3 3 3 2 1 1 3 3 2 2 4 3 3 5 5 7 5 5 4 3 3 4 3 3 4 3 3 4 4 4 3 3 3 3 3 3
10 10 7 7 6 6 6 5 5 5 5 4 4 4 4 3 4 3 4 4 3 3 3 3 4 4 4 3 3 3 1 2 4 4 2 3 4 4 4 4 3 6 7 4 5 3 3 4 4 4 3 4 5 3 4 3 4 4 2 3 3 3
12 10 9 8 7 5 6 6 5 5 5 5 5 4 3 3 3 4 4 4 3 4 4 4 4 5 5 4 4 3 2 2 4 4 3 3 5 4 4 4 3 3 7 5 4 4 4 4 4 4 4 4 4 3 4 4 3 2 2 3 2 2
8 9 8 8 8 7 6 6 5 5 5 5 4 3 4 4 4 4 4 4 4 4 5 5 5 5 5 4 3 4 3 3 3 4 3 4 5 4 3 4 5 4 5 6 4 5 5 4 4 4 5 5 4 5 4 3 1 2 3 2 3 3
9 8 6 6 5 6 6 4 3 4 4 4 3 3 4 4 4 4 3 3 3 3 4 4 4 3 4 4 3 3 3 3 4 4 4 5 4 4 3 2 5 5 5 4 5 4 5 4 5 5 5 5 4 4 3 2 2 2 2 2 2 2
9 7 7 6 5 6 5 6 5 4 4 4 4 4 4 5 4 4 3 3 3 3 3 4 3 5 6 4 4 3 4 3 4 5 5 5 4 4 5 4 4 7 6 5 4 4 4 6 5 6 4 4 4 3 3 3 3 2 2 2 3 1
9 9 8 8 7 7 7 6 5 6 5 4 5 3 4 3 4 4 3 4 4 4 4 4 4 4 5 4 4 3 3 3 5 5 5 5 5 4 3 4 4 3 7 6 3 3 3 5 7 5 5 4 5 4 3 3 3 3 3 2 3 2
10 9 9 9 8 7 7 7 6 6 4 4 4 4 4 2 4 4 4 4 5 4 5 4 4 4 4 5 5 4 3 4 5 5 4 5 5 4 4 4 4 4 3 4 4 4 5 3 3 3 5 2 3 3 2 4 3 2 1 2 3 3
10 10 8 7 7 7 5 5 6 4 5 3 0 2 2 2 3 5 4 4 5 5 6 5 5 5 5 4 5 5 4 4 4 5 6 6 6 6 5 5 4 6 4 3 2 1 1 1 4 2 2 5 1 3 3 4 3 4 2 2 3 4
10 9 8 7 7 5 6 5 4 6 5 4 4 2 2 2 3 4 3 4 4 6 6 6 5 5 4 4 4 5 4 4 4 5 7 7 6 6 5 4 3 3 6 5 2 2 1 1 3 7 3 2 2 3 4 2 3 3 3 3 4 4
10 9 9 9 9 7 6 5 5 5 5 6 5 4 4 1 1 2 3 3 5 5 5 5 5 4 5 4 3 4 4 4 4 4 5 6 6 6 6 5 4 4 4 7 3 1 1 2 2 1 5 4 3 1 1 2 2 3 5 4 4 4
8 8 8 8 8 8 7 7 7 8 7 5 5 5 5 6 4 4 5 2 3 3 4 5 5 5 4 4 4 3 3 4 4 4 5 5 5 5 5 6 5 5 3 0 5 4 2 1 1 3 2 1 4 4 6 3 4 1 3 4 5 6
8 7 6 7 7 7 7 6 7 7 6 7 7 4 3 4 6 3 3 4 4 3 3 5 4 4 4 4 4 4 4 4 4 4 4 5 5 6 5 5 5 4 4 4 3 4 5 3 1 1 2 1 0 0 6 6 3 4 4 4 5 5
7 7 6 7 7 6 8 7 7 6 7 7 7 6 6 5 3 3 4 3 3 2 2 3 4 3 4 5 5 5 4 4 4 4 4 5 5 4 4 3 4 4 4 5 5 6 5 3 6 2 2 3 3 4 4 4 4 6 6 6 3 4
7 7 6 7 7 6 6 7 8 8 7 6 5 5 4 3 4 4 4 2 2 2 2 2 3 4 4 4 5 5 5 4 4 4 3 4 4 5 5 5 4 4 5 4 4 4 5 6 4 4 3 3 4 4 5 3 3 3 4 7 3 4
7 6 6 7 7 6 6 7 7 8 9 6 5 5 5 5 5 4 5 3 3 3 2 2 2 2 3 3 3 4 4 4 4 4 3 4 4 4 4 4 4 5 4 4 3 5 7 6 5 4 4 5 4 3 4 3 2 5 6 4 7 7
5 5 6 6 6 6 5 6 7 8 9 8 7 8 7 5 5 4 5 3 3 3 2 3 3 2 2 2 3 2 3 3 4 4 4 4 4 5 5 5 3 3 4 4 4 4 3 3 4 5 4 6 7 8 7 5 6 3 4 4 6 5
5 6 6 6 6 7 6 6 6 8 8 8 8 7 8 8 7 6 5 5 3 3 2 3 3 3 3 2 3 2 3 3 4 4 5 5 4 4 4 4 4 4 3 3 3 4 4 5 4 4 4 4 4 3 4 5 6 5 7 7 8 7
6 6 7 5 6 6 6 6 6 7 7 7 7 7 7 7 5 7 6 5 5 4 4 5 3 4 2 2 3 4 3 3 4 4 4 4 4 4 4 5 5 4 5 6 6 5 5 5 6 6 6 2 4 3 3 3 6 6 5 7 9 8
6 5 6 5 5 6 6 6 5 6 7 7 6 6 5 7 5 6 6 6 6 6 5 4 3 3 2 2 2 2 3 2 1 3 3 3 3 4 4 5 5 5 5 5 5 5 5 4 4 3 4 5 4 4 3 5 6 7 8 8 7 10
6 5 6 5 4 5 6 5 4 4 6 5 6 5 4 5 6 6 5 6 4 4 5 3 4 2 2 3 3 3 3 4 3 3 3 3 3 3 3 3 3 4 3 2 3 4 5 6 6 5 4 5 5 4 5 6 6 7 8 9 9 9
8 8 7 6 5 5 5 5 4 5 5 5 5 5 5 4 4 5 5 6 5 3 3 4 2 3 2 3 4 4 3 3 3 3 3 3 4 4 4 4 3 4 4 2 5 4 4 5 5 6 5 4 5 5 5 6 6 7 7 7 8 7
6 5 6 6 6 6 6 6 4 5 5 6 6 5 5 4 4 4 4 4 4 3 3 3 3 1 3 2 3 4 4 3 3 3 4 3 4 4 4 4 4 3 3 3 4 4 4 5 4 4 4 5 6 6 6 5 4 5 6 5 6 7
Wind_Direction
130 133 140 140 135 134 142 139 141 138 131 129 130 128 127 125 123 122 121 114 104 103 103 107 108 107 112 106 115 126 122 122 126 124 116 115 119 121 125 121 100 79 68 66 63 62 52 61 68 72 106 129 117 105 118 112 112 116 120 121 122 141
135 142 147 141 134 134 139 140 134 127 127 129 130 126 123 123 121 115 118 115 109 110 104 110 114 119 108 117 128 125 123 126 124 118 115 114 115 115 111 109 88 74 79 71 72 58 37 50 72 91 110 106 108 120 116 115 117 123 124 134 144 162
146 152 149 140 133 129 130 138 117 116 127 131 126 114 111 114 105 111 109 110 108 112 122 114 116 119 111 126 123 124 123 122 118 114 113 111 109 104 98 89 83 82 86 105 90 82 77 67 62 97 110 105 111 110 107 108 115 124 136 147 157 147
152 154 146 136 128 129 143 128 114 111 105 100 98 101 108 115 111 113 114 109 115 121 113 127 133 125 117 101 113 124 125 120 113 105 94 83 81 79 65 71 91 86 55 62 77 86 84 81 84 91 92 96 96 102 107 115 118 121 134 142 155 149
156 154 141 135 134 137 144 119 104 104 104 102 101 103 110 114 121 123 120 117 117 114 104 82 76 85 88 89 69 59 55 75 79 74 81 73 65 63 64 61 46 44 47 59 79 87 98 81 73 77 81 89 96 101 103 101 101 99 97 106 153 146
150 145 137 131 139 150 145 118 108 113 109 101 109 114 120 124 129 134 129 124 113 108 98 95 97 98 89 92 92 87 89 83 76 77 75 79 72 74 65 57 63 60 46 69 95 108 94 98 93 86 93 100 108 108 110 100 92 94 101 109 130 129
139 137 127 124 141 142 125 112 108 118 120 117 119 127 134 139 142 138 134 135 126 118 111 112 111 104 109 104 122 127 108 89 99 90 77 86 76 64 76 65 57 59 65 87 85 80 73 75 100 106 106 111 107 100 90 92 101 111 113 113 111 97
142 147 135 141 146 134 112 118 123 121 121 142 137 140 151 155 142 130 126 123 116 119 126 124 121 122 124 114 146 131 121 99 93 89 71 84 97 60 57 40 46 44 73 82 87 74 73 74 76 104 111 105 97 92 95 101 105 103 102 98 98 85
153 154 145 148 143 122 115 119 113 125 138 151 144 153 156 143 128 113 114 121 123 118 112 124 131 130 117 141 151 138 111 93 85 85 85 56 103 116 52 44 42 57 73 82 76 74 78 70 72 72 104 107 111 114 115 105 92 81 78 90 96 97
160 155 144 135 130 123 129 125 129 140 151 145 154 148 140 139 125 125 130 130 125 127 135 138 130 134 146 164 166 120 96 104 102 91 95 125 124 103 106 77 47 58 76 83 83 86 93 89 79 86 101 119 119 115 97 96 93 90 82 79 79 81
102 59 37 93 127 124 129 128 133 139 138 145 147 147 140 133 130 141 146 132 125 129 125 125 136 154 155 151 130 112 121 117 110 106 118 125 103 105 120 110 89 96 94 85 81 93 104 103 97 92 105 117 121 112 112 113 109 99 94 84 69 65
95 119 140 320 154 131 133 130 132 136 145 146 149 152 149 148 155 160 150 136 129 133 129 139 148 158 151 137 143 148 156 116 133 132 133 115 100 94 107 101 84 85 88 88 87 78 83 105 99 97 101 105 107 98 104 99 84 73 69 66 72 67
155 158 158 162 174 134 124 131 139 146 151 153 151 150 160 165 164 168 153 144 138 137 142 150 162 159 143 146 154 149 134 143 145 135 127 114 107 99 74 81 80 84 84 83 82 76 77 81 106 98 92 90 88 106 85 69 75 75 67 70 67 73
156 145 148 155 161 141 144 141 142 146 151 151 156 161 170 160 160 160 150 152 151 144 147 152 150 135 133 143 142 145 150 131 132 131 124 112 92 113 87 94 98 89 84 88 88 91 102 95 71 69 80 86 94 84 77 77 69 69 77 64 62 62
144 156 167 160 167 161 152 147 154 156 155 156 157 168 164 145 155 158 146 158 157 148 152 155 142 133 136 140 138 154 155 138 121 124 129 114 106 76 95 100 110 98 89 82 85 81 92 94 98 91 77 83 94 94 76 83 79 66 58 50 62 58
164 171 164 163 169 163 157 155 162 166 150 153 158 168 163 159 158 147 148 157 155 149 147 155 142 135 142 153 147 166 204 114 130 124 125 107 102 102 94 88 79 123 108 90 94 77 82 101 90 87 84 96 90 75 97 73 62 56 45 55 56 57
172 168 165 168 164 159 150 157 166 161 160 152 161 168 149 134 150 160 157 163 151 150 152 150 139 147 150 155 151 168 197 142 139 130 124 105 93 104 113 105 81 83 116 122 110 108 80 90 102 90 74 69 56 70 63 62 61 78 72 67 44 37
165 166 166 170 166 159 156 153 160 154 154 150 156 149 143 152 170 165 155 163 163 150 155 153 159 160 145 156 160 162 178 140 126 119 117 97 94 89 92 115 100 64 88 114 123 120 106 98 98 96 79 78 77 66 60 60 56 83 76 85 50 45
162 164 154 151 150 144 142 135 129 134 123 124 127 140 158 171 170 156 161 150 145 141 141 152 137 127 129 148 148 147 153 138 133 130 115 103 94 95 93 79 115 93 73 79 115 107 108 103 89 77 72 60 67 75 71 68 53 56 52 75 102 93
163 157 146 137 144 145 147 155 150 122 119 136 147 161 180 171 141 155 154 152 152 144 139 139 132 142 144 155 140 151 150 136 135 126 122 120 113 127 131 118 119 118 106 83 58 89 105 104 81 75 70 65 73 85 85 86 69 55 59 51 57 73
164 161 160 160 159 159 161 155 152 160 159 165 172 177 182 169 149 159 162 156 153 149 143 134 143 137 139 139 142 149 143 123 131 133 133 144 140 129 129 124 121 110 124 115 78 97 117 106 105 67 43 52 44 30 67 71 57 40 39 52 65 64
160 168 171 169 160 165 173 175 163 167 154 160 160 178 194 185 172 162 166 163 152 153 148 147 149 149 144 146 149 154 155 147 131 129 121 121 122 123 124 122 129 76 16 118 135 166 170 107 40 129 119 53 26 20 76 79 81 38 38 65 76 71
165 169 165 161 156 168 167 150 151 153 151 133 168 196 181 169 162 161 168 159 148 151 156 156 154 155 150 161 156 152 159 145 128 130 115 126 128 130 143 148 153 135 110 28 85 158 134 74 142 118 97 87 42 63 9 22 13 54 14 65 64 66
167 164 153 158 164 169 157 145 129 142 135 135 162 134 89 99 128 118 138 147 152 159 159 154 153 150 146 155 159 157 151 143 136 137 139 137 143 141 139 136 121 137 132 119 103 193 16 39 136 140 94 106 186 117 89 42 36 5 40 89 74 71
167 163 161 164 162 153 139 115 104 96 105 86 74 89 103 65 100 141 137 152 164 157 154 149 149 149 145 155 160 153 152 147 140 140 140 141 150 157 154 152 151 146 172 146 155 110 316 14 117 56 141 106 54 36 203 198 107 11 8 31 39 81
165 165 161 158 157 155 157 147 141 144 149 143 137 138 160 173 168 165 189 166 133 147 147 143 146 149 146 148 158 160 147 143 149 145 142 143 137 134 145 151 171 162 150 91 142 128 133 6 59 48 94 163 171 170 163 187 89 141 11 54 51 62
164 157 153 157 162 154 153 155 158 156 153 154 152 186 171 166 167 174 143 160 156 140 142 139 144 149 148 150 152 158 156 150 148 142 139 134 146 161 165 164 152 150 165 131 125 141 165 189 59 50 47 36 78 116 136 134 158 137 79 4 35 44
154 154 159 156 167 166 162 162 151 149 145 144 164 171 165 167 143 141 139 139 120 118 116 129 144 154 154 152 152 152 150 144 140 145 145 155 153 146 141 143 158 156 145 159 162 160 173 178 170 192 27 59 67 96 99 97 104 148 138 122 69 47
149 153 154 158 163 167 165 165 154 143 142 159 159 159 146 132 133 132 124 92 95 86 85 87 138 149 152 151 151 152 145 137 139 146 147 146 142 146 156 155 154 156 166 169 178 170 155 184 162 168 112 50 69 82 71 75 108 88 132 124 116 110
152 154 154 153 160 158 165 155 145 150 152 154 146 138 139 136 137 141 130 118 109 102 99 89 81 110 122 138 137 142 144 147 147 150 146 153 145 142 151 164 177 175 160 163 179 168 182 176 165 153 147 157 122 101 83 70 52 100 60 61 141 145
147 144 143 147 148 151 157 150 146 155 156 154 158 146 136 133 130 121 129 126 123 123 103 108 103 81 117 137 128 137 141 147 147 156 149 156 166 165 164 168 172 159 157 157 168 172 155 147 149 151 146 158 159 163 168 163 170 159 133 122 103 109
143 141 137 143 142 148 152 145 148 155 156 155 153 151 148 151 153 143 138 128 121 98 70 70 78 88 85 109 112 102 126 145 158 160 169 173 169 162 160 151 153 159 161 167 160 160 159 154 161 163 167 176 167 146 131 148 157 141 139 145 130 133
148 144 142 144 147 150 145 147 152 154 155 151 147 145 146 144 146 135 134 126 126 122 111 86 69 95 86 119 124 114 110 126 148 172 169 167 172 163 156 157 162 164 168 172 180 167 169 177 166 169 187 163 129 122 138 122 122 123 99 118 125 120
147 147 139 141 144 144 145 146 152 153 149 144 138 135 141 138 137 134 136 137 139 144 137 139 138 125 151 115 85 109 117 100 111 141 158 163 153 162 158 168 164 170 186 190 168 167 163 161 168 169 139 144 149 143 151 133 139 129 135 126 134 135
142 149 144 148 134 136 138 139 144 140 133 126 125 115 122 131 135 127 125 122 122 126 126 138 132 141 117 106 95 89 105 112 107 105 112 119 120 127 140 141 158 177 177 162 165 153 155 154 160 164 170 166 156 147 155 156 151 154 153 154 147 152
156 159 156 147 139 138 133 127 130 128 123 116 110 108 102 99 102 119 124 122 126 114 114 121 96 101 91 102 107 95 88 100 105 103 101 112 120 124 132 131 133 148 132 148 145 156 166 157 165 172 174 151 143 167 166 168 167 162 167 162 153 149
153 151 151 147 139 133 128 122 120 119 121 116 115 118 121 113 107 93 105 113 121 124 108 106 115 95 107 84 100 110 107 101 91 96 97 101 115 125 131 134 140 123 117 123 134 154 152 153 167 159 152 168 171 167 181 176 161 154 154 154 151 155